Weather in Semiozerka

Russia / Republic of Tatarstan     55°57′02″N   49°05′49″E
temp.,
°C
wind,
m/s
gust,
m/s
humid.,
%
clouds,
%
prec.,
mm/h
press.,
hPa
HPBL,
m
14 june, mon
mon1400:00+16sse359344 0.6 1013111
03:00+14sse2292100 0.6 101327
06:00+17s2587100 0.0 1014201
09:00+22sw4572100 0.0 1015798
12:00+23wsw4564100 0.0 10151243
15:00+24wsw3465100 0.0 10151000
18:00+22sw2478100 0.0 1015163
21:00+19wsw228483 0.9 101511
15 june, tue
tue1500:00+17w1186100 0.1 101511
03:00+16w1187100 0.1 101411
06:00+19e1180100 0.0 1015115
09:00+22sse3473100 0.9 1015235
12:00+22s346993 0.8 1015596
15:00+23se236783 0.8 1014639
18:00+20s238388 0.0 1013101
21:00+18ese229022 0.0 101217
16 june, wed
wed1600:00+17ene249425 0.0 101155
03:00+16ene369551 0.0 1011108
06:00+19ene5985100 0.0 1009251
09:00+24ese576480 0.0 1007590
12:00+26sse56565 0.0 10061141
15:00+27s44550 0.0 10051477
18:00+24sw5770100 0.2 1005402
21:00+17nnw5129058 2.9 1007428
17 june, thu
thu1700:00+16nnw6129267 0.0 1009684
03:00+12nnw615900 0.0 1012477
06:00+14nw61184100 0.0 1014455
09:00+17nnw710595 0.0 10151081
12:00+19n810500 0.0 10161790
15:00+20n79485 0.0 10172123
18:00+19n47600 0.0 1018446
21:00+14nnw48735 0.0 1020132
18 june, fri
fri1800:00+12n37760 0.0 1021114
03:00+11nnw22735 0.0 102226
06:00+14nnw34683 0.0 1024170
09:00+19nnw34555 0.0 1024937
12:00+21nnw45473 0.0 10241769
15:00+21nnw56458 0.0 10231597
18:00+21n246181 0.0 1023290
21:00+16wsw2268100 0.0 102311